• In Belarus
  • List of Countries
  • For 7 days
  • Water Temperature
  • Weather Map
  • Weather Widgets
  • user-avatar
    Login

    Hourly Weather Gorzecino

    Today, 23 September, Monday

    Time Temperature Precipitation Wind Pressure Humidity
    00:00 +12°C° 0 mm 3 mps 756 mmHg 77%
    01:00 +12°C° 0 mm 3 mps 756 mmHg 78%
    02:00 +12°C° 0 mm 3 mps 756 mmHg 81%
    03:00 +11°C° 0 mm 3 mps 756 mmHg 83%
    04:00 +11°C° 0 mm 4 mps 756 mmHg 86%
    05:00 +11°C° 0 mm 4 mps 756 mmHg 85%
    06:00 +12°C° 0 mm 4 mps 757 mmHg 84%
    07:00 +12°C° 0 mm 4 mps 757 mmHg 84%
    08:00 +14°C° 0 mm 4 mps 757 mmHg 77%
    09:00 +15°C° 0 mm 4 mps 757 mmHg 70%
    10:00 +17°C° 0 mm 5 mps 757 mmHg 63%
    11:00 +19°C° 0 mm 4 mps 757 mmHg 59%
    12:00 +20°C° 0 mm 4 mps 757 mmHg 55%
    13:00 +21°C° 0 mm 4 mps 757 mmHg 52%
    14:00 +21°C° 0 mm 4 mps 757 mmHg 53%
    15:00 +21°C° 0 mm 4 mps 757 mmHg 55%
    16:00 +21°C° 0 mm 4 mps 757 mmHg 57%
    17:00 +19°C° 0 mm 3 mps 757 mmHg 65%
    18:00 +17°C° 0 mm 3 mps 757 mmHg 73%
    19:00 +14°C° 0 mm 3 mps 757 mmHg 82%
    20:00 +13°C° 0 mm 3 mps 757 mmHg 83%
    21:00 +13°C° 0 mm 3 mps 757 mmHg 84%
    22:00 +12°C° 0 mm 3 mps 757 mmHg 85%
    23:00 +12°C° 0 mm 3 mps 757 mmHg 86%

    Tomorrow, 24 September, Tuesday

    Time Temperature Precipitation Wind Pressure Humidity
    00:00 +12°C° 0 mm 3 mps 757 mmHg 88%
    01:00 +11°C° 0 mm 3 mps 757 mmHg 89%
    02:00 +11°C° 0 mm 3 mps 757 mmHg 90%
    03:00 +10°C° 0 mm 3 mps 757 mmHg 91%
    04:00 +10°C° 0 mm 3 mps 756 mmHg 92%
    05:00 +10°C° 0 mm 3 mps 756 mmHg 91%
    06:00 +11°C° 0 mm 3 mps 756 mmHg 90%
    07:00 +11°C° 0 mm 3 mps 756 mmHg 88%
    08:00 +13°C° 0 mm 3 mps 756 mmHg 82%
    09:00 +16°C° 0 mm 3 mps 756 mmHg 75%
    10:00 +17°C° 0 mm 3 mps 756 mmHg 68%
    11:00 +18°C° 0 mm 3 mps 756 mmHg 64%
    12:00 +20°C° 0 mm 3 mps 755 mmHg 61%
    13:00 +21°C° 0 mm 3 mps 755 mmHg 57%
    14:00 +20°C° 0 mm 3 mps 755 mmHg 58%
    15:00 +20°C° 0 mm 2 mps 754 mmHg 60%
    16:00 +20°C° 0 mm 2 mps 754 mmHg 61%
    17:00 +19°C° 0.1 mm 2 mps 753 mmHg 68%
    18:00 +18°C° 0.1 mm 2 mps 753 mmHg 74%
    19:00 +16°C° 0.1 mm 2 mps 753 mmHg 81%
    20:00 +16°C° 0.1 mm 1 mps 753 mmHg 84%
    21:00 +16°C° 0.1 mm 1 mps 753 mmHg 88%
    22:00 +15°C° 0.1 mm 1 mps 753 mmHg 92%
    23:00 +15°C° 0.2 mm 1 mps 752 mmHg 92%

    Day after tomorrow, 25 September, Wednesday

    Time Temperature Precipitation Wind Pressure Humidity
    00:00 +15°C° 0.2 mm 2 mps 752 mmHg 93%
    01:00 +15°C° 0.2 mm 2 mps 752 mmHg 93%
    02:00 +15°C° 0.1 mm 2 mps 751 mmHg 94%
    03:00 +15°C° 0.1 mm 2 mps 751 mmHg 94%
    04:00 +14°C° 0.1 mm 2 mps 751 mmHg 95%
    05:00 +14°C° 0.2 mm 2 mps 750 mmHg 95%
    06:00 +14°C° 0.2 mm 2 mps 750 mmHg 95%
    07:00 +14°C° 0.2 mm 2 mps 750 mmHg 95%
    08:00 +15°C° 0.1 mm 2 mps 750 mmHg 91%
    09:00 +16°C° 0.1 mm 2 mps 750 mmHg 87%
    10:00 +17°C° 0.1 mm 2 mps 750 mmHg 83%
    11:00 +17°C° 0.7 mm 2 mps 750 mmHg 79%
    12:00 +18°C° 0.7 mm 3 mps 750 mmHg 75%
    13:00 +18°C° 0.7 mm 3 mps 750 mmHg 71%
    14:00 +18°C° 0.1 mm 3 mps 750 mmHg 75%
    15:00 +17°C° 0.1 mm 2 mps 750 mmHg 78%
    16:00 +16°C° 0.1 mm 2 mps 750 mmHg 82%
    17:00 +15°C° 0 mm 2 mps 750 mmHg 85%
    18:00 +15°C° 0 mm 1 mps 750 mmHg 88%
    19:00 +14°C° 0 mm 1 mps 750 mmHg 92%
    20:00 +14°C° 0 mm 1 mps 750 mmHg 93%
    21:00 +14°C° 0 mm 1 mps 751 mmHg 94%
    22:00 +13°C° 0 mm 2 mps 751 mmHg 95%
    23:00 +13°C° 0 mm 2 mps 751 mmHg 96%

    26 September, Thursday

    Time Temperature Precipitation Wind Pressure Humidity
    00:00 +13°C° 0 mm 2 mps 751 mmHg 96%
    01:00 +13°C° 0 mm 2 mps 751 mmHg 96%
    02:00 +13°C° 0 mm 2 mps 751 mmHg 96%
    03:00 +13°C° 0 mm 2 mps 752 mmHg 96%
    04:00 +13°C° 0 mm 2 mps 752 mmHg 96%
    05:00 +13°C° 0 mm 2 mps 752 mmHg 95%
    06:00 +13°C° 0 mm 2 mps 752 mmHg 95%
    07:00 +13°C° 0 mm 2 mps 752 mmHg 94%
    08:00 +14°C° 0 mm 2 mps 753 mmHg 89%
    09:00 +15°C° 0 mm 2 mps 753 mmHg 83%
    10:00 +16°C° 0 mm 2 mps 754 mmHg 78%
    11:00 +18°C° 0 mm 2 mps 754 mmHg 72%
    12:00 +19°C° 0 mm 2 mps 754 mmHg 66%
    13:00 +20°C° 0 mm 2 mps 754 mmHg 59%
    14:00 +20°C° 0 mm 2 mps 754 mmHg 61%
    15:00 +19°C° 0 mm 2 mps 754 mmHg 63%
    16:00 +19°C° 0 mm 2 mps 754 mmHg 64%
    17:00 +18°C° 0 mm 2 mps 754 mmHg 71%
    18:00 +16°C° 0 mm 1 mps 754 mmHg 78%
    19:00 +15°C° 0 mm 1 mps 754 mmHg 84%
    20:00 +14°C° 0 mm 1 mps 755 mmHg 87%
    21:00 +14°C° 0 mm 2 mps 755 mmHg 89%
    22:00 +14°C° 0 mm 2 mps 755 mmHg 91%
    23:00 +14°C° 0 mm 2 mps 755 mmHg 93%

    27 September, Friday

    Time Temperature Precipitation Wind Pressure Humidity
    00:00 +14°C° 0 mm 2 mps 755 mmHg 94%
    01:00 +13°C° 0 mm 2 mps 755 mmHg 95%
    02:00 +13°C° 0 mm 3 mps 755 mmHg 94%
    03:00 +13°C° 0 mm 3 mps 755 mmHg 94%
    04:00 +13°C° 0 mm 3 mps 754 mmHg 94%
    05:00 +13°C° 0.1 mm 3 mps 754 mmHg 94%
    06:00 +13°C° 0.1 mm 3 mps 754 mmHg 94%
    07:00 +14°C° 0.1 mm 4 mps 754 mmHg 94%
    08:00 +15°C° 0.1 mm 4 mps 754 mmHg 90%
    09:00 +17°C° 0.1 mm 4 mps 754 mmHg 85%
    10:00 +18°C° 0.1 mm 4 mps 754 mmHg 81%
    11:00 +19°C° 0 mm 4 mps 754 mmHg 76%
    12:00 +19°C° 0 mm 5 mps 753 mmHg 70%
    13:00 +20°C° 0 mm 5 mps 753 mmHg 65%
    14:00 +20°C° 0.1 mm 5 mps 753 mmHg 67%
    15:00 +20°C° 0.1 mm 4 mps 752 mmHg 69%
    16:00 +19°C° 0.1 mm 4 mps 752 mmHg 71%
    17:00 +18°C° 0.1 mm 4 mps 752 mmHg 74%
    18:00 +17°C° 0.1 mm 4 mps 752 mmHg 78%
    19:00 +15°C° 0.1 mm 4 mps 752 mmHg 81%
    20:00 +16°C° 0.1 mm 3 mps 752 mmHg 84%
    21:00 +14°C° 0.1 mm 3 mps 752 mmHg 87%
    22:00 +14°C° 0.1 mm 3 mps 752 mmHg 90%
    23:00 +13°C° 0.1 mm 3 mps 752 mmHg 91%

    28 September, Saturday

    Time Temperature Precipitation Wind Pressure Humidity
    00:00 +13°C° 0.1 mm 3 mps 752 mmHg 92%
    01:00 +13°C° 0.1 mm 3 mps 752 mmHg 93%
    02:00 +13°C° 0.2 mm 3 mps 752 mmHg 94%
    03:00 +12°C° 0.2 mm 3 mps 752 mmHg 94%
    04:00 +12°C° 0.2 mm 3 mps 752 mmHg 95%
    05:00 +12°C° 0.1 mm 3 mps 752 mmHg 94%
    06:00 +12°C° 0.1 mm 4 mps 752 mmHg 94%
    07:00 +12°C° 0.1 mm 4 mps 752 mmHg 93%
    08:00 +13°C° 0 mm 4 mps 752 mmHg 86%
    09:00 +15°C° 0 mm 4 mps 752 mmHg 78%
    10:00 +16°C° 0 mm 5 mps 752 mmHg 70%
    11:00 +17°C° 0.1 mm 5 mps 752 mmHg 65%
    12:00 +19°C° 0.1 mm 6 mps 751 mmHg 61%
    13:00 +19°C° 0.1 mm 6 mps 751 mmHg 56%
    14:00 +19°C° 0.1 mm 6 mps 751 mmHg 57%
    15:00 +19°C° 0.1 mm 5 mps 751 mmHg 58%
    16:00 +18°C° 0.1 mm 4 mps 750 mmHg 59%
    17:00 +17°C° 0.1 mm 4 mps 750 mmHg 64%
    18:00 +15°C° 0.1 mm 4 mps 750 mmHg 69%
    19:00 +14°C° 0.1 mm 3 mps 750 mmHg 74%
    20:00 +13°C° 0 mm 4 mps 750 mmHg 75%
    21:00 +13°C° 0 mm 4 mps 750 mmHg 75%
    22:00 +13°C° 0 mm 5 mps 750 mmHg 76%
    23:00 +13°C° 0 mm 5 mps 750 mmHg 75%
    Show more